Showing default

IRIDIUM 106, 41917

Orbit data source: Space-Track

IRIDIUM 106, 41917 is a payload satellite owned by Iridium (US) in LEO that was launched on Sat, 14 Jan 2017 UTC via an FALCON 9 launch vehicle from the Air Force Western Test Range (AFWTR). Payloads include a variety of satellites, spacecraft, and rockets equipped with specific instruments for various scientific and technological missions. These include communications satellites like Starlink; space stations such as the ISS; scientific satellites like the Hubble; Earth observation satellites from companies like Planet Labs, Umbra, and HawkEye 360; GPS; miniature CubeSats for education and research; and military/defense satellites.

Loading next visibility...
IRIDIUM 106 details
Identifier
41917, 2017-003A
Orbit
LEO
Last TLE update7 hours ago
Origin
Flag of USIridium (US)
ManufacturerOATK SSG Gilbert
MissionOperational Commercial Communications
Bus & MotorELITEBUS, Unknown motor
Mass860 kg wet, 700 kg dry
Launch date (UTC)
2017-01-14 (8 years ago)
Launch vehicle
FALCON 9
Launch site
Air Force Western Test Range (AFWTR)
Object type
Payload
Rocket body
Debris
Shape & HBRTrap Box + 2 Pan, 9.4 m
Radar Cross Section14.423 m², Large (>1 m²)

Expand to show TLE details & history

TLE from 7 hours ago
0 IRIDIUM 106
1 41917U 17003A   24361.24997823  .00000386  00000-0  13076-3 0  9990
2 41917  86.3969 313.3220 0001999  91.6172 268.5253 14.34217465416103
Epoch: 2024-12-26T05:59Z
Definitive object data (Epoch: 2024-12-26T05:59:58.119Z)
Latitude0.00002°
Longitude128.09776°
Altitude780.756 km
Speed7.463 km/s
True Right ascension20h 53m 17s
True Declination0° 00' 00"
Sunlit
Object was in daylight at TLE epoch
Visualization TLE readout
Latitude53.96873°
Longitude-56.96889°
Altitude785.461 km
Speed7.467 km/s
Apparent Right ascension04h 07m 19s
Apparent Declination19° 54' 17"
Sunlit
Object is in full shadow
Visualization observer readout
Local Sidereal Time12:38:36
Azimuth310.353° NW
Elevation-12.929°
Doppler factor1
Orbital elements
Apogee altitude776.062 km
Perigee altitude773.203 km
Semi-major axis7,152.77 km
Eccentricity0.0001999
Inclination86.3969°
RAAN313.322°
Arg. of periapsis91.6172°
True anomaly268.5024°
Mean anomaly268.5253°
Eccentric anomaly268.51385°
Mean motion3.58783 °/min
BSTAR0.00013076
Orbital period100.34 mins
Loading maneuver chart data...
Loading historical data...
Loading historical data...
Loading historical data...
Loading historical data...
Loading historical data...
Loading historical data...
Loading historical data...

IRIDIUM 106 Visibility forecast

Observer location: undefined°, undefined

Span
Click to sort rows by Start time (UTC) header in descending order
Start Az.
Max El. time (UTC)
Max El. Az.
Max El.
End time (UTC)
End Az.
9 mins2024-12-26 21:10:56.883Z159.585° S2024-12-26 21:14:56.883Z102.06° ESE37.187°2024-12-26 21:19:56.883Z14.5° NNE
5 mins2024-12-26 22:53:56.883Z252.67° W2024-12-26 22:55:56.883Z278.644° WNW16.785°2024-12-26 22:58:56.883Z318.214° NNW
8 mins2024-12-27 09:22:56.883Z349.438° N2024-12-27 09:26:56.883Z233.639° WSW42.145°2024-12-27 09:30:56.883Z188.966° SSW
|